QPF
0.00 0.00 0.00 0.01 0.01 0.02 0.03 0.02 0.01 0.01 0.01 0.01 0.02 0.02 0.02 0.02 0.02 0.02 0.01 0.01 0.01 0.01 0.01 0.02 0.03 0.06 0.07 0.07 0.04 0.03 0.03 0.03 0.02 0.02 0.02 0.02 0.03 0.03 0.02 0.02 0.01 0.02 0.02
0.00 0.00 0.00 0.00 0.01 0.02 0.03 0.03 0.02 0.02 0.01 0.01 0.01 0.02 0.02 0.02 0.02 0.03 0.03 0.01 0.01 0.01 0.01 0.02 0.03 0.04 0.04 0.05 0.05 0.03 0.02 0.02 0.02 0.02 0.01 0.01 0.02 0.02 0.02 0.02 0.01 0.02 0.02
0.00 0.00 0.00 0.00 0.00 0.01 0.03 0.03 0.03 0.02 0.02 0.02 0.02 0.01 0.01 0.02 0.02 0.02 0.03 0.02 0.02 0.02 0.01 0.02 0.03 0.03 0.04 0.03 0.03 0.03 0.02 0.02 0.02 0.01 0.01 0.01 0.01 0.01 0.02 0.02 0.02 0.02 0.02
0.00 0.00 0.00 0.00 0.00 0.01 0.02 0.03 0.03 0.03 0.02 0.03 0.03 0.02 0.02 0.02 0.02 0.02 0.03 0.04 0.02 0.02 0.02 0.02 0.03 0.03 0.04 0.04 0.02 0.03 0.03 0.02 0.02 0.02 0.01 0.01 0.01 0.01 0.01 0.02 0.01 0.01 0.01
0.01 0.00 0.00 0.00 0.00 0.01 0.02 0.03 0.04 0.04 0.03 0.04 0.03 0.03 0.03 0.03 0.03 0.03 0.03 0.04 0.03 0.02 0.02 0.02 0.02 0.02 0.03 0.04 0.03 0.02 0.03 0.03 0.02 0.02 0.01 0.00 0.01 0.01 0.02 0.02 0.02 0.01 0.01
0.01 0.01 0.00 0.01 0.01 0.02 0.02 0.03 0.04 0.04 0.04 0.04 0.04 0.04 0.04 0.04 0.04 0.04 0.03 0.03 0.03 0.03 0.02 0.01 0.02 0.02 0.02 0.04 0.04 0.03 0.02 0.04 0.04 0.03 0.01 0.01 0.01 0.02 0.02 0.02 0.02 0.02 0.02
0.01 0.01 0.00 0.01 0.01 0.02 0.02 0.03 0.04 0.05 0.04 0.05 0.05 0.05 0.05 0.05 0.05 0.05 0.04 0.03 0.03 0.03 0.02 0.01 0.02 0.02 0.02 0.02 0.02 0.03 0.03 0.02 0.03 0.03 0.02 0.01 0.01 0.02 0.02 0.02 0.03 0.02 0.02
0.00 0.00 0.00 0.01 0.01 0.02 0.02 0.04 0.04 0.05 0.05 0.05 0.06 0.06 0.07 0.05 0.04 0.05 0.05 0.04 0.03 0.03 0.01 0.01 0.01 0.01 0.01 0.01 0.01 0.02 0.03 0.03 0.03 0.04 0.02 0.01 0.01 0.01 0.01 0.03 0.03 0.03 0.02
0.01 0.00 0.00 0.01 0.01 0.01 0.01 0.02 0.04 0.04 0.05 0.06 0.07 0.07 0.06 0.06 0.05 0.05 0.04 0.03 0.03 0.02 0.02 0.01 0.01 0.01 0.01 0.01 0.01 0.02 0.01 0.02 0.04 0.04 0.02 0.02 0.01 0.01 0.01 0.02 0.02 0.02 0.02
0.01 0.01 0.01 0.01 0.01 0.01 0.01 0.02 0.03 0.03 0.04 0.05 0.07 0.07 0.06 0.05 0.05 0.05 0.04 0.03 0.02 0.02 0.02 0.01 0.01 0.02 0.01 0.01 0.01 0.01 0.01 0.01 0.04 0.06 0.05 0.03 0.02 0.02 0.02 0.01 0.01 0.02 0.02
0.01 0.01 0.01 0.02 0.02 0.02 0.03 0.02 0.02 0.03 0.04 0.04 0.05 0.06 0.07 0.05 0.05 0.04 0.03 0.03 0.02 0.02 0.02 0.01 0.01 0.01 0.01 0.01 0.01 0.02 0.01 0.01 0.02 0.05 0.07 0.05 0.04 0.03 0.02 0.02 0.02 0.02 0.02
0.01 0.01 0.01 0.02 0.03 0.03 0.03 0.03 0.04 0.04 0.05 0.06 0.04 0.06 0.06 0.07 0.06 0.05 0.04 0.04 0.03 0.03 0.03 0.01 0.01 0.01 0.01 0.01 0.01 0.01 0.01 0.02 0.02 0.03 0.05 0.06 0.05 0.04 0.03 0.02 0.02 0.02 0.02
0.02 0.01 0.01 0.01 0.03 0.03 0.02 0.03 0.03 0.03 0.04 0.06 0.05 0.05 0.05 0.06 0.06 0.06 0.06 0.06 0.05 0.03 0.03 0.02 0.01 0.01 0.01 0.01 0.01 0.01 0.01 0.01 0.02 0.01 0.02 0.04 0.06 0.06 0.04 0.03 0.02 0.02 0.02
0.03 0.02 0.01 0.01 0.02 0.02 0.02 0.02 0.02 0.02 0.02 0.04 0.05 0.06 0.04 0.04 0.05 0.06 0.07 0.07 0.05 0.03 0.02 0.02 0.01 0.01 0.01 0.01 0.01 0.01 0.01 0.01 0.01 0.01 0.01 0.02 0.04 0.06 0.05 0.03 0.02 0.03 0.02
0.03 0.03 0.02 0.02 0.03 0.03 0.03 0.03 0.02 0.01 0.01 0.02 0.04 0.05 0.04 0.03 0.04 0.04 0.05 0.06 0.06 0.05 0.04 0.02 0.01 0.01 0.01 0.01 0.01 0.01 0.02 0.02 0.02 0.01 0.01 0.01 0.02 0.04 0.05 0.03 0.02 0.02 0.02
0.03 0.02 0.03 0.02 0.03 0.04 0.04 0.05 0.03 0.01 0.01 0.01 0.03 0.04 0.04 0.03 0.04 0.05 0.06 0.06 0.06 0.05 0.04 0.05 0.03 0.02 0.01 0.01 0.01 0.01 0.01 0.02 0.02 0.02 0.02 0.01 0.01 0.02 0.03 0.04 0.03 0.02 0.02
0.02 0.03 0.02 0.03 0.03 0.05 0.06 0.07 0.04 0.02 0.01 0.01 0.02 0.03 0.03 0.03 0.04 0.05 0.07 0.07 0.08 0.06 0.05 0.04 0.05 0.04 0.02 0.01 0.01 0.01 0.01 0.01 0.02 0.02 0.02 0.01 0.01 0.01 0.01 0.02 0.02 0.03 0.03
0.03 0.03 0.03 0.03 0.03 0.05 0.09 0.10 0.05 0.03 0.01 0.01 0.01 0.02 0.03 0.03 0.02 0.03 0.04 0.05 0.05 0.06 0.05 0.05 0.05 0.05 0.03 0.01 0.01 0.00 0.00 0.01 0.01 0.02 0.02 0.01 0.01 0.01 0.01 0.01 0.02 0.02 0.03
0.03 0.04 0.04 0.03 0.03 0.04 0.08 0.11 0.06 0.04 0.03 0.02 0.01 0.03 0.03 0.03 0.02 0.02 0.02 0.03 0.04 0.04 0.04 0.03 0.03 0.04 0.03 0.02 0.01 0.00 0.00 0.00 0.01 0.01 0.02 0.01 0.01 0.01 0.01 0.01 0.01 0.02 0.02
0.04 0.04 0.05 0.04 0.04 0.04 0.06 0.07 0.07 0.05 0.04 0.04 0.03 0.04 0.04 0.03 0.03 0.02 0.02 0.02 0.04 0.04 0.05 0.04 0.03 0.02 0.03 0.03 0.01 0.01 0.00 0.01 0.01 0.01 0.01 0.01 0.01 0.01 0.01 0.01 0.01 0.02 0.02
0.04 0.05 0.06 0.06 0.04 0.05 0.04 0.05 0.04 0.04 0.03 0.03 0.04 0.05 0.05 0.04 0.03 0.03 0.02 0.02 0.02 0.03 0.04 0.04 0.04 0.03 0.03 0.03 0.02 0.01 0.01 0.01 0.01 0.01 0.01 0.01 0.01 0.01 0.01 0.02 0.02 0.02 0.03
0.05 0.05 0.06 0.07 0.06 0.04 0.03 0.03 0.02 0.03 0.02 0.02 0.02 0.04 0.06 0.06 0.04 0.03 0.02 0.02 0.01 0.02 0.03 0.04 0.04 0.03 0.03 0.03 0.03 0.03 0.02 0.02 0.01 0.01 0.01 0.01 0.01 0.02 0.01 0.02 0.02 0.02 0.03
0.07 0.06 0.06 0.06 0.05 0.04 0.04 0.05 0.04 0.03 0.02 0.01 0.01 0.02 0.05 0.07 0.07 0.05 0.03 0.02 0.01 0.02 0.03 0.03 0.04 0.05 0.04 0.03 0.03 0.04 0.05 0.04 0.03 0.02 0.01 0.01 0.01 0.01 0.02 0.02 0.02 0.02 0.03
0.05 0.05 0.07 0.08 0.06 0.03 0.03 0.06 0.07 0.06 0.04 0.02 0.01 0.02 0.04 0.06 0.07 0.07 0.06 0.04 0.02 0.02 0.02 0.03 0.03 0.04 0.05 0.06 0.05 0.04 0.05 0.05 0.05 0.04 0.02 0.02 0.02 0.02 0.02 0.03 0.03 0.04 0.04
0.03 0.04 0.04 0.06 0.08 0.04 0.03 0.04 0.06 0.08 0.07 0.06 0.04 0.03 0.03 0.04 0.06 0.07 0.07 0.06 0.04 0.02 0.02 0.02 0.03 0.03 0.04 0.05 0.05 0.05 0.05 0.05 0.05 0.05 0.04 0.03 0.04 0.04 0.04 0.05 0.06 0.06 0.05
0.02 0.03 0.03 0.03 0.05 0.05 0.03 0.03 0.04 0.05 0.06 0.08 0.08 0.07 0.05 0.04 0.05 0.05 0.06 0.07 0.06 0.04 0.03 0.03 0.03 0.03 0.04 0.04 0.05 0.05 0.05 0.05 0.05 0.05 0.05 0.05 0.04 0.04 0.04 0.04 0.05 0.06 0.05
MSLP
1009.98 1010.01 1010.22 1010.62 1011.16 1011.77 1012.36 1012.85 1013.18 1013.36 1013.42 1013.44 1013.48 1013.61 1013.82 1014.13 1014.47 1014.82 1015.11 1015.34 1015.49 1015.59 1015.67 1015.75 1015.86 1015.98 1016.11 1016.22 1016.30 1016.32 1016.31 1016.28 1016.24 1016.22 1016.22 1016.24 1016.26 1016.25 1016.21 1016.13 1016.01 1015.87 1015.75
1009.64 1009.75 1010.03 1010.50 1011.10 1011.75 1012.35 1012.82 1013.14 1013.32 1013.39 1013.44 1013.53 1013.70 1013.98 1014.33 1014.71 1015.06 1015.35 1015.55 1015.67 1015.74 1015.81 1015.90 1016.02 1016.17 1016.32 1016.45 1016.53 1016.56 1016.53 1016.48 1016.42 1016.38 1016.37 1016.39 1016.41 1016.42 1016.39 1016.31 1016.19 1016.04 1015.91
1009.27 1009.46 1009.83 1010.38 1011.03 1011.70 1012.31 1012.78 1013.10 1013.27 1013.37 1013.46 1013.60 1013.84 1014.18 1014.57 1014.97 1015.31 1015.57 1015.73 1015.81 1015.86 1015.90 1015.98 1016.12 1016.28 1016.46 1016.60 1016.69 1016.71 1016.68 1016.61 1016.53 1016.48 1016.47 1016.49 1016.52 1016.54 1016.53 1016.46 1016.35 1016.22 1016.08
1008.89 1009.18 1009.64 1010.26 1010.96 1011.66 1012.27 1012.74 1013.05 1013.23 1013.35 1013.49 1013.69 1013.99 1014.37 1014.79 1015.19 1015.52 1015.74 1015.86 1015.90 1015.92 1015.95 1016.03 1016.17 1016.36 1016.55 1016.71 1016.80 1016.82 1016.78 1016.69 1016.61 1016.55 1016.54 1016.56 1016.61 1016.65 1016.65 1016.60 1016.51 1016.38 1016.25
1008.53 1008.92 1009.48 1010.18 1010.92 1011.64 1012.25 1012.70 1013.01 1013.20 1013.34 1013.51 1013.76 1014.10 1014.51 1014.95 1015.34 1015.65 1015.84 1015.93 1015.94 1015.94 1015.97 1016.06 1016.21 1016.42 1016.62 1016.80 1016.90 1016.91 1016.86 1016.77 1016.68 1016.62 1016.61 1016.64 1016.70 1016.75 1016.76 1016.73 1016.65 1016.53 1016.41
1008.25 1008.74 1009.38 1010.13 1010.91 1011.64 1012.24 1012.68 1012.98 1013.17 1013.33 1013.52 1013.80 1014.16 1014.58 1015.02 1015.40 1015.69 1015.86 1015.93 1015.94 1015.94 1015.98 1016.09 1016.26 1016.49 1016.71 1016.89 1016.99 1017.01 1016.96 1016.86 1016.77 1016.71 1016.70 1016.74 1016.79 1016.85 1016.87 1016.84 1016.76 1016.65 1016.53
1008.08 1008.62 1009.32 1010.12 1010.92 1011.64 1012.23 1012.66 1012.94 1013.13 1013.30 1013.50 1013.79 1014.16 1014.58 1015.00 1015.37 1015.65 1015.81 1015.87 1015.90 1015.92 1015.99 1016.13 1016.33 1016.58 1016.81 1016.99 1017.09 1017.10 1017.05 1016.95 1016.86 1016.81 1016.80 1016.84 1016.90 1016.95 1016.96 1016.93 1016.84 1016.73 1016.61
1008.00 1008.58 1009.31 1010.11 1010.91 1011.62 1012.18 1012.59 1012.87 1013.06 1013.23 1013.44 1013.73 1014.10 1014.50 1014.91 1015.26 1015.53 1015.69 1015.78 1015.83 1015.89 1016.00 1016.18 1016.41 1016.66 1016.90 1017.07 1017.16 1017.17 1017.11 1017.02 1016.94 1016.90 1016.90 1016.94 1017.00 1017.04 1017.04 1016.99 1016.89 1016.77 1016.63
1008.00 1008.57 1009.28 1010.06 1010.83 1011.51 1012.05 1012.44 1012.72 1012.91 1013.10 1013.32 1013.62 1013.97 1014.37 1014.75 1015.09 1015.35 1015.53 1015.64 1015.73 1015.84 1015.99 1016.20 1016.45 1016.71 1016.93 1017.09 1017.17 1017.17 1017.11 1017.04 1016.97 1016.95 1016.97 1017.02 1017.07 1017.11 1017.09 1017.03 1016.91 1016.76 1016.62
1008.01 1008.54 1009.20 1009.93 1010.64 1011.28 1011.79 1012.18 1012.46 1012.68 1012.89 1013.14 1013.44 1013.80 1014.18 1014.56 1014.88 1015.14 1015.33 1015.47 1015.60 1015.75 1015.94 1016.17 1016.43 1016.68 1016.89 1017.03 1017.09 1017.08 1017.03 1016.97 1016.93 1016.94 1016.98 1017.05 1017.11 1017.14 1017.12 1017.03 1016.90 1016.73 1016.57
1007.96 1008.43 1009.02 1009.67 1010.31 1010.90 1011.39 1011.77 1012.07 1012.33 1012.58 1012.87 1013.20 1013.57 1013.95 1014.31 1014.64 1014.90 1015.10 1015.27 1015.43 1015.61 1015.83 1016.07 1016.32 1016.56 1016.74 1016.86 1016.91 1016.90 1016.86 1016.82 1016.81 1016.85 1016.92 1017.01 1017.09 1017.12 1017.10 1017.01 1016.86 1016.69 1016.52
1007.81 1008.20 1008.71 1009.27 1009.84 1010.38 1010.84 1011.23 1011.57 1011.87 1012.18 1012.52 1012.88 1013.27 1013.67 1014.03 1014.35 1014.62 1014.84 1015.03 1015.22 1015.42 1015.65 1015.89 1016.13 1016.35 1016.51 1016.61 1016.65 1016.64 1016.62 1016.61 1016.63 1016.70 1016.80 1016.92 1017.01 1017.06 1017.04 1016.95 1016.81 1016.64 1016.47
1007.52 1007.84 1008.27 1008.75 1009.26 1009.74 1010.19 1010.59 1010.97 1011.33 1011.70 1012.09 1012.50 1012.92 1013.33 1013.71 1014.03 1014.31 1014.55 1014.76 1014.96 1015.18 1015.41 1015.65 1015.88 1016.08 1016.23 1016.32 1016.35 1016.35 1016.35 1016.36 1016.42 1016.51 1016.64 1016.77 1016.88 1016.94 1016.94 1016.87 1016.74 1016.59 1016.43
1007.08 1007.36 1007.72 1008.15 1008.60 1009.06 1009.50 1009.92 1010.33 1010.74 1011.17 1011.61 1012.06 1012.51 1012.94 1013.33 1013.67 1013.97 1014.22 1014.46 1014.68 1014.92 1015.16 1015.40 1015.62 1015.81 1015.95 1016.03 1016.07 1016.09 1016.10 1016.13 1016.20 1016.31 1016.44 1016.58 1016.70 1016.77 1016.79 1016.75 1016.66 1016.53 1016.40
1006.53 1006.78 1007.12 1007.51 1007.94 1008.38 1008.82 1009.26 1009.71 1010.16 1010.63 1011.10 1011.58 1012.06 1012.50 1012.91 1013.28 1013.60 1013.88 1014.14 1014.40 1014.66 1014.91 1015.16 1015.38 1015.57 1015.72 1015.81 1015.86 1015.89 1015.92 1015.95 1016.02 1016.12 1016.24 1016.37 1016.48 1016.56 1016.60 1016.59 1016.54 1016.46 1016.37
1005.90 1006.17 1006.50 1006.89 1007.32 1007.78 1008.23 1008.70 1009.17 1009.64 1010.13 1010.62 1011.10 1011.58 1012.04 1012.46 1012.86 1013.21 1013.54 1013.84 1014.14 1014.42 1014.70 1014.97 1015.21 1015.41 1015.57 1015.68 1015.75 1015.79 1015.82 1015.85 1015.89 1015.96 1016.05 1016.14 1016.23 1016.31 1016.36 1016.39 1016.39 1016.37 1016.33
1005.26 1005.55 1005.92 1006.34 1006.80 1007.29 1007.78 1008.26 1008.75 1009.23 1009.71 1010.18 1010.66 1011.12 1011.58 1012.02 1012.43 1012.82 1013.20 1013.56 1013.90 1014.24 1014.55 1014.85 1015.11 1015.33 1015.51 1015.64 1015.73 1015.78 1015.80 1015.81 1015.82 1015.84 1015.87 1015.92 1015.98 1016.04 1016.10 1016.16 1016.20 1016.24 1016.26
1004.66 1004.99 1005.40 1005.87 1006.38 1006.92 1007.45 1007.97 1008.46 1008.94 1009.39 1009.83 1010.27 1010.70 1011.14 1011.58 1012.02 1012.46 1012.89 1013.31 1013.71 1014.10 1014.45 1014.78 1015.07 1015.32 1015.52 1015.67 1015.77 1015.83 1015.85 1015.83 1015.80 1015.76 1015.73 1015.72 1015.72 1015.76 1015.82 1015.90 1015.99 1016.08 1016.15
1004.13 1004.50 1004.96 1005.49 1006.07 1006.66 1007.24 1007.79 1008.30 1008.76 1009.18 1009.57 1009.96 1010.35 1010.76 1011.20 1011.66 1012.14 1012.62 1013.10 1013.55 1013.98 1014.38 1014.74 1015.05 1015.32 1015.55 1015.72 1015.84 1015.91 1015.92 1015.89 1015.82 1015.72 1015.63 1015.55 1015.50 1015.50 1015.55 1015.64 1015.76 1015.89 1016.00
1003.70 1004.10 1004.60 1005.19 1005.82 1006.48 1007.12 1007.70 1008.22 1008.67 1009.06 1009.40 1009.73 1010.07 1010.45 1010.87 1011.34 1011.85 1012.38 1012.90 1013.41 1013.88 1014.31 1014.69 1015.02 1015.31 1015.56 1015.75 1015.89 1015.98 1016.00 1015.95 1015.85 1015.72 1015.57 1015.43 1015.33 1015.28 1015.30 1015.39 1015.52 1015.68 1015.82
1003.41 1003.81 1004.33 1004.95 1005.64 1006.35 1007.04 1007.66 1008.20 1008.64 1009.00 1009.29 1009.57 1009.86 1010.20 1010.61 1011.08 1011.61 1012.17 1012.73 1013.27 1013.76 1014.21 1014.60 1014.94 1015.24 1015.50 1015.72 1015.89 1016.00 1016.04 1016.00 1015.90 1015.74 1015.55 1015.36 1015.21 1015.12 1015.11 1015.18 1015.30 1015.46 1015.62
1003.27 1003.66 1004.17 1004.80 1005.51 1006.25 1006.98 1007.64 1008.20 1008.64 1008.98 1009.24 1009.47 1009.72 1010.02 1010.41 1010.87 1011.41 1011.98 1012.55 1013.10 1013.61 1014.05 1014.44 1014.78 1015.08 1015.35 1015.60 1015.80 1015.95 1016.03 1016.03 1015.94 1015.78 1015.57 1015.35 1015.16 1015.02 1014.97 1015.00 1015.10 1015.25 1015.40
1003.31 1003.65 1004.12 1004.72 1005.42 1006.18 1006.92 1007.60 1008.18 1008.63 1008.96 1009.20 1009.40 1009.62 1009.90 1010.25 1010.70 1011.22 1011.79 1012.36 1012.91 1013.40 1013.82 1014.20 1014.52 1014.82 1015.10 1015.37 1015.61 1015.82 1015.95 1016.00 1015.95 1015.81 1015.61 1015.38 1015.15 1014.97 1014.87 1014.86 1014.92 1015.04 1015.17
1003.53 1003.81 1004.21 1004.75 1005.41 1006.14 1006.87 1007.56 1008.14 1008.59 1008.92 1009.16 1009.34 1009.54 1009.79 1010.12 1010.55 1011.05 1011.60 1012.15 1012.66 1013.13 1013.52 1013.86 1014.17 1014.46 1014.74 1015.04 1015.32 1015.58 1015.78 1015.89 1015.90 1015.81 1015.63 1015.40 1015.15 1014.94 1014.79 1014.73 1014.74 1014.82 1014.93
1003.92 1004.13 1004.44 1004.90 1005.47 1006.14 1006.84 1007.50 1008.08 1008.53 1008.86 1009.10 1009.28 1009.46 1009.69 1010.00 1010.40 1010.87 1011.38 1011.90 1012.38 1012.80 1013.15 1013.46 1013.73 1014.00 1014.29 1014.60 1014.93 1015.24 1015.50 1015.69 1015.77 1015.73 1015.59 1015.38 1015.13 1014.90 1014.71 1014.59 1014.56 1014.59 1014.66
1004.46 1004.59 1004.81 1005.16 1005.63 1006.21 1006.84 1007.46 1008.00 1008.45 1008.78 1009.01 1009.19 1009.36 1009.58 1009.86 1010.23 1010.67 1011.14 1011.61 1012.05 1012.42 1012.73 1012.99 1013.23 1013.48 1013.76 1014.09 1014.44 1014.80 1015.12 1015.37 1015.52 1015.55 1015.46 1015.28 1015.05 1014.80 1014.59 1014.43 1014.35 1014.34 1014.38
Thickness
5725 5725 5725 5725 5725 5725 5726 5726 5726 5726 5726 5726 5726 5726 5726 5725 5725 5725 5725 5726 5726 5726 5726 5726 5726 5725 5725 5724 5724 5723 5723 5723 5723 5722 5722 5722 5721 5721 5721 5721 5720 5720 5720
5724 5722 5721 5721 5721 5721 5721 5721 5722 5722 5722 5722 5722 5722 5722 5722 5721 5721 5721 5721 5722 5722 5722 5722 5722 5721 5721 5720 5720 5720 5719 5719 5719 5719 5718 5718 5718 5717 5717 5717 5717 5717 5716
5720 5718 5716 5716 5716 5716 5716 5716 5716 5717 5717 5717 5717 5717 5717 5717 5717 5717 5717 5717 5717 5717 5717 5717 5717 5717 5716 5716 5716 5716 5715 5715 5715 5715 5715 5714 5714 5714 5713 5713 5713 5713 5713
5715 5713 5711 5710 5710 5710 5710 5711 5711 5711 5712 5712 5712 5712 5712 5713 5713 5713 5713 5713 5713 5713 5713 5713 5712 5712 5712 5712 5711 5711 5711 5712 5712 5712 5712 5711 5711 5710 5710 5709 5709 5709 5709
5710 5707 5705 5705 5705 5705 5705 5705 5706 5706 5706 5707 5707 5707 5707 5708 5708 5708 5708 5708 5708 5708 5708 5708 5707 5707 5707 5707 5707 5707 5707 5707 5708 5707 5708 5708 5707 5707 5706 5706 5705 5705 5705
5703 5701 5699 5698 5698 5699 5699 5699 5700 5700 5701 5701 5701 5702 5702 5702 5703 5703 5703 5702 5702 5702 5702 5703 5703 5702 5702 5703 5703 5703 5703 5703 5703 5703 5703 5704 5703 5703 5703 5702 5701 5701 5700
5696 5695 5692 5692 5692 5692 5693 5693 5694 5694 5694 5695 5695 5696 5696 5696 5696 5697 5697 5697 5697 5697 5697 5697 5697 5697 5697 5698 5698 5698 5698 5699 5699 5699 5699 5699 5699 5699 5698 5698 5697 5697 5697
5689 5687 5685 5685 5685 5685 5686 5686 5687 5687 5688 5688 5689 5689 5689 5690 5690 5691 5691 5691 5691 5691 5691 5692 5692 5692 5692 5693 5693 5693 5693 5694 5694 5694 5694 5694 5694 5694 5694 5693 5693 5693 5693
5682 5680 5678 5678 5678 5678 5679 5680 5680 5680 5681 5681 5681 5682 5682 5682 5683 5684 5684 5684 5685 5685 5686 5686 5686 5686 5687 5687 5688 5688 5688 5689 5689 5689 5689 5689 5689 5689 5689 5689 5688 5688 5688
5673 5672 5671 5671 5671 5672 5672 5673 5673 5673 5673 5674 5674 5674 5675 5675 5676 5677 5677 5678 5678 5679 5679 5680 5680 5680 5681 5681 5682 5683 5683 5683 5684 5684 5684 5684 5684 5684 5684 5683 5683 5684 5684
5664 5664 5664 5664 5665 5665 5665 5666 5666 5666 5666 5666 5666 5667 5667 5667 5668 5669 5670 5671 5671 5672 5672 5673 5674 5674 5674 5675 5676 5677 5677 5678 5678 5679 5679 5679 5678 5678 5678 5678 5678 5679 5679
5654 5656 5657 5657 5657 5658 5658 5658 5659 5659 5658 5658 5659 5659 5659 5660 5660 5662 5663 5664 5664 5665 5666 5666 5667 5667 5668 5668 5669 5670 5671 5672 5672 5673 5673 5673 5673 5673 5673 5673 5673 5673 5674
5647 5647 5649 5649 5650 5650 5650 5651 5651 5651 5651 5651 5651 5652 5652 5652 5653 5654 5655 5655 5656 5657 5658 5658 5659 5660 5661 5662 5663 5664 5665 5665 5666 5667 5667 5668 5667 5667 5667 5667 5667 5667 5668
5639 5639 5640 5641 5641 5641 5642 5643 5643 5643 5643 5643 5644 5644 5644 5645 5645 5645 5646 5647 5648 5649 5650 5650 5652 5653 5654 5655 5656 5657 5658 5659 5659 5660 5661 5661 5661 5661 5661 5661 5661 5661 5662
5631 5631 5631 5632 5633 5633 5634 5634 5634 5635 5635 5636 5636 5636 5637 5637 5637 5638 5639 5639 5640 5641 5641 5642 5644 5645 5646 5647 5648 5649 5651 5651 5652 5653 5653 5654 5654 5654 5654 5654 5654 5655 5655
5623 5622 5622 5623 5624 5624 5625 5625 5626 5626 5627 5628 5628 5628 5628 5629 5629 5630 5630 5631 5631 5632 5632 5633 5634 5636 5637 5638 5639 5641 5642 5643 5644 5645 5645 5646 5646 5646 5646 5647 5647 5647 5648
5613 5613 5613 5614 5615 5615 5616 5615 5617 5617 5618 5619 5619 5620 5620 5621 5621 5621 5621 5622 5622 5622 5623 5624 5625 5626 5627 5629 5630 5631 5633 5634 5635 5636 5637 5637 5637 5637 5638 5638 5639 5640 5640
5603 5603 5603 5604 5604 5605 5605 5605 5606 5608 5608 5609 5610 5611 5611 5611 5612 5612 5612 5613 5613 5613 5614 5615 5615 5616 5617 5618 5619 5621 5623 5625 5626 5627 5628 5628 5628 5628 5628 5629 5629 5630 5631
5593 5593 5592 5593 5593 5594 5594 5595 5596 5597 5598 5599 5600 5601 5602 5602 5603 5603 5603 5603 5604 5604 5604 5605 5606 5606 5606 5607 5608 5611 5613 5614 5616 5617 5618 5618 5618 5618 5619 5619 5619 5620 5621
5583 5583 5582 5582 5582 5583 5583 5584 5584 5586 5587 5588 5589 5591 5592 5592 5593 5594 5594 5594 5595 5594 5594 5594 5594 5595 5595 5596 5598 5600 5602 5604 5606 5607 5607 5608 5608 5608 5609 5609 5609 5609 5610
5572 5572 5572 5571 5572 5572 5572 5571 5572 5573 5575 5576 5578 5580 5581 5582 5583 5583 5584 5584 5585 5584 5584 5584 5584 5584 5583 5584 5584 5587 5591 5594 5596 5596 5597 5597 5598 5598 5598 5599 5599 5599 5600
5561 5561 5561 5561 5561 5561 5560 5560 5560 5562 5563 5565 5566 5568 5570 5571 5572 5573 5573 5574 5574 5574 5573 5573 5572 5571 5571 5571 5570 5571 5575 5580 5584 5586 5586 5587 5587 5587 5587 5588 5588 5589 5589
5550 5550 5552 5551 5551 5551 5550 5549 5549 5550 5551 5553 5554 5556 5558 5560 5561 5562 5563 5563 5563 5563 5562 5562 5562 5561 5559 5559 5558 5557 5558 5563 5566 5572 5574 5575 5575 5575 5576 5576 5577 5578 5577
5541 5540 5540 5540 5541 5541 5540 5539 5538 5538 5539 5541 5543 5545 5547 5548 5550 5551 5551 5552 5552 5552 5552 5551 5552 5551 5549 5548 5547 5547 5547 5548 5548 5554 5559 5561 5562 5562 5563 5564 5565 5566 5566
5531 5530 5529 5529 5529 5529 5529 5528 5528 5528 5529 5531 5533 5534 5535 5537 5538 5540 5540 5541 5541 5541 5541 5541 5541 5540 5540 5539 5537 5536 5535 5536 5536 5537 5543 5546 5547 5548 5550 5551 5552 5553 5554
5520 5520 5519 5519 5518 5519 5519 5519 5519 5519 5520 5521 5522 5523 5524 5526 5527 5529 5530 5530 5531 5531 5531 5531 5531 5530 5530 5529 5527 5525 5524 5524 5525 5526 5528 5532 5534 5536 5537 5539 5540 5541 5541